Location: Consuma
(43.7833°N, 11.5833°E)
Time: 13:52:07
(UTC+00:00)

Lacrosse 5 - Pass Details

Date: 17 February 2020
Orbit: 715 x 724 km, 57.0° (Epoch: 21 March)

Event Time Altitude Azimuth Distance (km) Brightness Sun altitude
Exits shadow 02:59:22 25° 38° (NE) 1,447 3.8 -34.9°
Drops below altitude 10° 03:02:45 10° 78° (ENE) 2,208 5.2 -34.3°
Sets 03:05:30 0° 91° (E) 3,129 6.1 -33.8°
